Starlink 31338

operational
NORAD ID: 59156 Int'l Des: 2024-044 Owner: SPXS Country: US Constellation: starlink
LEOCIRCULAR

关于 Starlink 31338

正在加载描述...

实时位置

正在加载3D地球...

即将过境

高度历史

Altitude vs Time

uPlot chart will show altitude changes over time

两行轨道根数

1 59156U 24044E 25304.21715056 -.00007581 00000-0 -28023-3 0 9992
2 59156 43.0003 121.7339 0001121 267.4858 92.5865 15.25913480 93723
Epoch: Oct 31, 2025 • Age: 13 hours

当前状态

高度 491.3 km
速度 7.62 km/s
星下点 -17.14°S, 2.67°W
发射日期 Mar 4, 2024
运行时间 1.6 years
类型 internet

技术详情

分类 Payload
质量 730.00 kg
干质量 700.00 kg
总质量 730.00 kg
长度 0.30 m
直径 4.10 m
跨度 29.00 m
形状 Box + pan
制造商 SPXS
平台类型 Starlink V2M
阶段状态 In Orbit
所有者/国家 SPXS/US

大型星座

Loading constellations...